OAL951 SLPO-SBCG

Flight info

Callsign OAL951
Flight time 1h 37m
Altitude 37000
Route ALC UW14 VIR UM411 ATERU UZ42 IRIPI
Aircraft B738/M-SDE2E3FGHIRWXY/LB1

Departure

Time 2026-05-08 21:15
Airport Capitan Nicolas Rojas Airport (SLPO)

Arrival

Time 2026-05-08 22:52
Airport Campo Grande Airport (SBCG)
Time Latitude Longitude Altitude Speed Heading
2026-05-08 20:47 -19.54295 -65.71993 12441 ft 0 kts 149°
2026-05-08 21:06 -19.54293 -65.71994 12441 ft 0 kts 149°
2026-05-08 21:06 -19.54282 -65.72001 12446 ft 2 kts 149°
2026-05-08 21:06 -19.54271 -65.72008 12447 ft 2 kts 115°
2026-05-08 21:06 -19.54270 -65.72022 12446 ft 2 kts 34°
2026-05-08 21:07 -19.54278 -65.72026 12449 ft 0 kts 343°
2026-05-08 21:09 -19.54272 -65.72028 12445 ft 2 kts 342°
2026-05-08 21:09 -19.54251 -65.72040 12443 ft 5 kts 329°
2026-05-08 21:09 -19.54235 -65.72051 12444 ft 0 kts 329°
2026-05-08 21:10 -19.54234 -65.72051 12444 ft 0 kts 329°
2026-05-08 21:10 -19.54211 -65.72066 12445 ft 5 kts 328°
2026-05-08 21:10 -19.54183 -65.72085 12444 ft 5 kts 329°
2026-05-08 21:11 -19.54145 -65.72092 12444 ft 7 kts 17°
2026-05-08 21:11 -19.54089 -65.72026 12442 ft 16 kts 56°
2026-05-08 21:11 -19.54025 -65.71926 12437 ft 17 kts 55°
2026-05-08 21:11 -19.53955 -65.71817 12429 ft 19 kts 56°
2026-05-08 21:12 -19.53878 -65.71695 12434 ft 21 kts 56°
2026-05-08 21:12 -19.53793 -65.71561 12421 ft 23 kts 56°
2026-05-08 21:12 -19.53705 -65.71423 12410 ft 22 kts 56°
2026-05-08 21:12 -19.53659 -65.71335 12410 ft 10 kts 67°
2026-05-08 21:13 -19.53640 -65.71311 12408 ft 1 kts 353°
2026-05-08 21:13 -19.53638 -65.71316 12400 ft 1 kts 300°
2026-05-08 21:13 -19.53642 -65.71323 12404 ft 1 kts 241°
2026-05-08 21:13 -19.53666 -65.71363 12413 ft 24 kts 238°
2026-05-08 21:14 -19.53865 -65.71677 12432 ft 77 kts 236°
2026-05-08 21:14 -19.54259 -65.72294 12459 ft 124 kts 236°
2026-05-08 21:14 -19.54819 -65.73172 12514 ft 162 kts 236°
2026-05-08 21:14 -19.55459 -65.74258 12806 ft 181 kts 239°
2026-05-08 21:15 -19.56137 -65.75380 13520 ft 179 kts 239°
2026-05-08 21:15 -19.56809 -65.76500 14113 ft 185 kts 239°
2026-05-08 21:15 -19.57287 -65.77294 14075 ft 201 kts 238°
2026-05-08 21:15 -19.58323 -65.78980 14151 ft 202 kts 237°
2026-05-08 21:16 -19.59109 -65.80234 14297 ft 208 kts 237°
2026-05-08 21:16 -19.59654 -65.81088 14314 ft 214 kts 237°
2026-05-08 21:16 -19.60479 -65.82399 14376 ft 220 kts 238°
2026-05-08 21:16 -19.61317 -65.83776 14545 ft 221 kts 236°
2026-05-08 21:17 -19.62476 -65.84925 14568 ft 246 kts 207°
2026-05-08 21:17 -19.64114 -65.85656 14579 ft 267 kts 215°
2026-05-08 21:17 -19.65413 -65.87083 14752 ft 272 kts 243°
2026-05-08 21:17 -19.65911 -65.88996 15129 ft 277 kts 267°
2026-05-08 21:18 -19.65558 -65.91059 15149 ft 298 kts 292°
2026-05-08 21:18 -19.64294 -65.92825 15619 ft 308 kts 318°
2026-05-08 21:18 -19.62378 -65.93926 16108 ft 325 kts 339°
2026-05-08 21:18 -19.60066 -65.94202 16420 ft 349 kts
2026-05-08 21:19 -19.57640 -65.93548 16537 ft 375 kts 22°
2026-05-08 21:19 -19.55420 -65.91980 16776 ft 392 kts 41°
2026-05-08 21:19 -19.53627 -65.89746 17024 ft 405 kts 60°
2026-05-08 21:19 -19.52396 -65.87062 17709 ft 405 kts 65°
2026-05-08 21:20 -19.51253 -65.84311 18205 ft 410 kts 66°
2026-05-08 21:20 -19.50125 -65.81529 18706 ft 410 kts 66°
2026-05-08 21:20 -19.48997 -65.78748 19211 ft 413 kts 66°
2026-05-08 21:20 -19.47842 -65.75929 19573 ft 419 kts 66°
2026-05-08 21:21 -19.46668 -65.73094 20063 ft 421 kts 66°
2026-05-08 21:21 -19.45482 -65.70253 20526 ft 424 kts 65°
2026-05-08 21:21 -19.44280 -65.67392 20990 ft 426 kts 65°
2026-05-08 21:21 -19.43070 -65.64522 21474 ft 428 kts 65°
2026-05-08 21:22 -19.41845 -65.61623 21875 ft 433 kts 65°
2026-05-08 21:22 -19.40627 -65.58741 22257 ft 438 kts 66°
2026-05-08 21:22 -19.39357 -65.55739 22621 ft 442 kts 66°
2026-05-08 21:22 -19.38100 -65.52765 23157 ft 442 kts 66°
2026-05-08 21:23 -19.36842 -65.49794 23605 ft 443 kts 66°
2026-05-08 21:23 -19.35576 -65.46806 23966 ft 446 kts 65°
2026-05-08 21:23 -19.34301 -65.43797 24349 ft 449 kts 65°
2026-05-08 21:23 -19.33035 -65.40808 24729 ft 452 kts 65°
2026-05-08 21:24 -19.31744 -65.37765 25118 ft 455 kts 65°
2026-05-08 21:24 -19.30444 -65.34701 25481 ft 458 kts 65°
2026-05-08 21:24 -19.29132 -65.31611 25883 ft 461 kts 65°
2026-05-08 21:24 -19.27814 -65.28507 26247 ft 463 kts 65°
2026-05-08 21:25 -19.26489 -65.25389 26620 ft 466 kts 64°
2026-05-08 21:25 -19.25157 -65.22259 26954 ft 469 kts 64°
2026-05-08 21:25 -19.23816 -65.19105 27252 ft 471 kts 64°
2026-05-08 21:25 -19.22465 -65.15932 27566 ft 474 kts 64°
2026-05-08 21:26 -19.21108 -65.12745 27865 ft 477 kts 64°
2026-05-08 21:26 -19.19741 -65.09537 28144 ft 480 kts 64°
2026-05-08 21:26 -19.18367 -65.06314 28428 ft 482 kts 64°
2026-05-08 21:26 -19.16951 -65.03096 28663 ft 483 kts 60°
2026-05-08 21:27 -19.15183 -65.00071 28874 ft 483 kts 50°
2026-05-08 21:27 -19.13028 -64.97347 29125 ft 484 kts 46°
2026-05-08 21:27 -19.10794 -64.94685 29376 ft 486 kts 45°
2026-05-08 21:27 -19.08531 -64.92007 29561 ft 489 kts 45°
2026-05-08 21:28 -19.06266 -64.89310 29775 ft 492 kts 45°
2026-05-08 21:28 -19.04003 -64.86590 30010 ft 494 kts 45°
2026-05-08 21:28 -19.01741 -64.83850 30205 ft 496 kts 45°
2026-05-08 21:28 -18.99475 -64.81093 30420 ft 497 kts 45°
2026-05-08 21:29 -18.97211 -64.78334 30657 ft 498 kts 45°
2026-05-08 21:29 -18.94938 -64.75566 30882 ft 500 kts 45°
2026-05-08 21:29 -18.92658 -64.72791 31121 ft 501 kts 45°
2026-05-08 21:29 -18.90376 -64.70016 31488 ft 498 kts 45°
2026-05-08 21:30 -18.88112 -64.67263 31932 ft 495 kts 45°
2026-05-08 21:30 -18.85860 -64.64528 32331 ft 493 kts 45°
2026-05-08 21:30 -18.83611 -64.61799 32649 ft 492 kts 44°
2026-05-08 21:30 -18.81364 -64.59075 32951 ft 492 kts 44°
2026-05-08 21:31 -18.79119 -64.56353 33318 ft 490 kts 44°
2026-05-08 21:31 -18.76920 -64.53679 33710 ft 488 kts 44°
2026-05-08 21:31 -18.74677 -64.50932 33996 ft 487 kts 45°
2026-05-08 21:31 -18.72495 -64.48253 34203 ft 488 kts 44°
2026-05-08 21:32 -18.70287 -64.45541 34488 ft 487 kts 44°
2026-05-08 21:32 -18.68084 -64.42832 34843 ft 485 kts 44°
2026-05-08 21:32 -18.65896 -64.40145 35191 ft 482 kts 44°
2026-05-08 21:32 -18.63713 -64.37467 35461 ft 481 kts 44°
2026-05-08 21:33 -18.61527 -64.34789 35652 ft 483 kts 43°
2026-05-08 21:33 -18.59332 -64.32103 35775 ft 483 kts 43°
2026-05-08 21:33 -18.57138 -64.29424 35900 ft 484 kts 43°
2026-05-08 21:33 -18.54934 -64.26740 36126 ft 484 kts 43°
2026-05-08 21:34 -18.52737 -64.24056 36402 ft 482 kts 43°
2026-05-08 21:34 -18.50557 -64.21386 36792 ft 479 kts 43°
2026-05-08 21:34 -18.48383 -64.18725 36937 ft 481 kts 43°
2026-05-08 21:35 -18.43983 -64.13352 36927 ft 484 kts 43°
2026-05-08 21:35 -18.39609 -64.08012 36936 ft 479 kts 43°
2026-05-08 21:36 -18.35262 -64.02711 36946 ft 478 kts 43°
2026-05-08 21:36 -18.30919 -63.97425 36951 ft 477 kts 43°
2026-05-08 21:37 -18.26569 -63.92137 36971 ft 480 kts 43°
2026-05-08 21:37 -18.22158 -63.86782 36963 ft 487 kts 43°
2026-05-08 21:38 -18.17721 -63.81390 36964 ft 487 kts 43°
2026-05-08 21:38 -18.13281 -63.75998 36975 ft 488 kts 43°
2026-05-08 21:39 -18.08846 -63.70618 36970 ft 486 kts 42°
2026-05-08 21:39 -18.04422 -63.65256 36965 ft 484 kts 42°
2026-05-08 21:40 -18.00014 -63.59920 36971 ft 482 kts 42°
2026-05-08 21:40 -17.95625 -63.54611 36965 ft 481 kts 42°
2026-05-08 21:41 -17.89072 -63.46693 36966 ft 478 kts 42°
2026-05-08 21:41 -17.84720 -63.41441 36953 ft 477 kts 42°
2026-05-08 21:42 -17.80375 -63.36199 36946 ft 475 kts 42°
2026-05-08 21:42 -17.76043 -63.30978 36942 ft 474 kts 42°
2026-05-08 21:43 -17.71716 -63.25767 36938 ft 473 kts 42°
2026-05-08 21:43 -17.67394 -63.20565 36939 ft 472 kts 42°
2026-05-08 21:44 -17.65360 -63.17844 36914 ft 481 kts 55°
2026-05-08 21:44 -17.64138 -63.14549 36956 ft 493 kts 74°
2026-05-08 21:44 -17.63810 -63.10946 36927 ft 501 kts 91°
2026-05-08 21:44 -17.64433 -63.07348 36962 ft 504 kts 104°
2026-05-08 21:45 -17.66429 -63.00303 36947 ft 505 kts 106°
2026-05-08 21:45 -17.68479 -62.93312 36938 ft 505 kts 105°
2026-05-08 21:46 -17.70484 -62.86206 36940 ft 505 kts 104°
2026-05-08 21:46 -17.72417 -62.79173 36952 ft 505 kts 104°
2026-05-08 21:47 -17.74348 -62.72098 36969 ft 505 kts 104°
2026-05-08 21:47 -17.76282 -62.65015 36951 ft 505 kts 104°
2026-05-08 21:48 -17.78218 -62.57924 36950 ft 506 kts 104°
2026-05-08 21:48 -17.80155 -62.50823 36942 ft 506 kts 104°
2026-05-08 21:49 -17.82090 -62.43720 36947 ft 506 kts 104°
2026-05-08 21:49 -17.84020 -62.36621 36944 ft 506 kts 104°
2026-05-08 21:50 -17.85948 -62.29522 36946 ft 505 kts 104°
2026-05-08 21:50 -17.87871 -62.22425 36944 ft 505 kts 104°
2026-05-08 21:51 -17.89789 -62.15340 36943 ft 504 kts 104°
2026-05-08 21:51 -17.91700 -62.08268 36946 ft 503 kts 104°
2026-05-08 21:52 -17.93608 -62.01195 36940 ft 503 kts 104°
2026-05-08 21:52 -17.95510 -61.94132 36945 ft 503 kts 104°
2026-05-08 21:53 -17.97412 -61.87059 36953 ft 503 kts 104°
2026-05-08 21:53 -17.99312 -61.79987 36944 ft 504 kts 104°
2026-05-08 21:54 -18.01238 -61.72909 36940 ft 504 kts 105°
2026-05-08 21:54 -18.03174 -61.65833 36941 ft 504 kts 105°
2026-05-08 21:55 -18.05104 -61.58755 36941 ft 504 kts 105°
2026-05-08 21:56 -18.07993 -61.48121 36940 ft 504 kts 105°
2026-05-08 21:56 -18.09922 -61.41029 36941 ft 505 kts 105°
2026-05-08 21:57 -18.11900 -61.33955 36938 ft 505 kts 105°
2026-05-08 21:57 -18.13892 -61.26880 36944 ft 505 kts 105°
2026-05-08 21:58 -18.15880 -61.19787 36940 ft 506 kts 105°
2026-05-08 21:58 -18.17862 -61.12687 36936 ft 506 kts 105°
2026-05-08 21:59 -18.19841 -61.05575 36933 ft 507 kts 105°
2026-05-08 21:59 -18.21819 -60.98459 36934 ft 507 kts 105°
2026-05-08 22:00 -18.23797 -60.91330 36934 ft 508 kts 105°
2026-05-08 22:00 -18.25773 -60.84201 36939 ft 508 kts 105°
2026-05-08 22:01 -18.27413 -60.78276 36937 ft 508 kts 105°
2026-05-08 22:01 -18.29385 -60.71139 36933 ft 507 kts 105°
2026-05-08 22:02 -18.31350 -60.64020 36935 ft 506 kts 105°
2026-05-08 22:02 -18.33310 -60.56904 36942 ft 506 kts 105°
2026-05-08 22:03 -18.35268 -60.49783 36937 ft 506 kts 105°
2026-05-08 22:03 -18.37221 -60.42672 36942 ft 506 kts 105°
2026-05-08 22:04 -18.39171 -60.35560 36938 ft 505 kts 105°
2026-05-08 22:04 -18.41116 -60.28454 36941 ft 505 kts 105°
2026-05-08 22:05 -18.43058 -60.21348 36941 ft 505 kts 105°
2026-05-08 22:05 -18.44984 -60.14292 36944 ft 504 kts 105°
2026-05-08 22:06 -18.46929 -60.07150 36943 ft 504 kts 105°
2026-05-08 22:06 -18.48858 -60.00059 36942 ft 503 kts 105°
2026-05-08 22:07 -18.50769 -59.93023 37010 ft 503 kts 105°
2026-05-08 22:07 -18.52690 -59.85938 37006 ft 503 kts 105°
2026-05-08 22:08 -18.54609 -59.78850 37004 ft 503 kts 105°
2026-05-08 22:08 -18.56528 -59.71747 36989 ft 504 kts 105°
2026-05-08 22:09 -18.58448 -59.64633 36978 ft 505 kts 105°
2026-05-08 22:09 -18.60366 -59.57512 36954 ft 505 kts 105°
2026-05-08 22:10 -18.62283 -59.50388 36946 ft 505 kts 105°
2026-05-08 22:10 -18.64197 -59.43261 36947 ft 505 kts 105°
2026-05-08 22:11 -18.66107 -59.36133 36946 ft 505 kts 105°
2026-05-08 22:11 -18.68016 -59.29003 36938 ft 505 kts 105°
2026-05-08 22:12 -18.69917 -59.21887 36952 ft 505 kts 104°
2026-05-08 22:12 -18.71818 -59.14761 36952 ft 505 kts 104°
2026-05-08 22:13 -18.73717 -59.07632 36948 ft 504 kts 104°
2026-05-08 22:13 -18.75606 -59.00527 36949 ft 504 kts 104°
2026-05-08 22:14 -18.77495 -58.93413 36950 ft 503 kts 104°
2026-05-08 22:14 -18.79378 -58.86309 36948 ft 502 kts 104°
2026-05-08 22:15 -18.81256 -58.79210 36954 ft 502 kts 104°
2026-05-08 22:15 -18.83126 -58.72127 36954 ft 501 kts 104°
2026-05-08 22:16 -18.84993 -58.65048 36950 ft 500 kts 104°
2026-05-08 22:16 -18.86891 -58.57980 36949 ft 501 kts 105°
2026-05-08 22:17 -18.88840 -58.50915 36961 ft 502 kts 105°
2026-05-08 22:17 -18.90787 -58.43825 36954 ft 503 kts 105°
2026-05-08 22:18 -18.92726 -58.36717 36952 ft 505 kts 105°
2026-05-08 22:18 -18.94669 -58.29586 36949 ft 506 kts 105°
2026-05-08 22:19 -18.96619 -58.22440 36948 ft 507 kts 105°
2026-05-08 22:19 -18.98575 -58.15286 36955 ft 507 kts 105°
2026-05-08 22:20 -19.00527 -58.08132 36940 ft 506 kts 105°
2026-05-08 22:20 -19.02472 -58.00984 36936 ft 505 kts 105°
2026-05-08 22:21 -19.04407 -57.93859 36935 ft 504 kts 105°
2026-05-08 22:21 -19.06338 -57.86742 36920 ft 503 kts 105°
2026-05-08 22:22 -19.08278 -57.79653 36914 ft 501 kts 107°
2026-05-08 22:22 -19.10532 -57.72687 36914 ft 500 kts 109°
2026-05-08 22:23 -19.12911 -57.65778 36921 ft 499 kts 109°
2026-05-08 22:23 -19.15256 -57.58866 36923 ft 499 kts 109°
2026-05-08 22:24 -19.17565 -57.51947 36924 ft 499 kts 109°
2026-05-08 22:24 -19.19864 -57.45018 36919 ft 499 kts 109°
2026-05-08 22:25 -19.22161 -57.38086 36940 ft 500 kts 109°
2026-05-08 22:25 -19.24463 -57.31140 36928 ft 500 kts 109°
2026-05-08 22:26 -19.26763 -57.24190 36928 ft 501 kts 109°
2026-05-08 22:26 -19.29065 -57.17223 36929 ft 502 kts 109°
2026-05-08 22:27 -19.31354 -57.10281 36923 ft 503 kts 109°
2026-05-08 22:27 -19.33659 -57.03287 36929 ft 504 kts 109°
2026-05-08 22:28 -19.36142 -56.96350 36920 ft 504 kts 116°
2026-05-08 22:28 -19.39363 -56.89760 36943 ft 504 kts 119°
2026-05-08 22:29 -19.42704 -56.83212 36921 ft 505 kts 119°
2026-05-08 22:29 -19.45992 -56.76633 36924 ft 505 kts 118°
2026-05-08 22:30 -19.49236 -56.70026 36922 ft 505 kts 118°
2026-05-08 22:30 -19.52466 -56.63410 36924 ft 505 kts 118°
2026-05-08 22:31 -19.55691 -56.56799 36916 ft 504 kts 118°
2026-05-08 22:31 -19.58913 -56.50197 36926 ft 504 kts 118°
2026-05-08 22:31 -19.60525 -56.46891 36737 ft 507 kts 118°
2026-05-08 22:32 -19.62151 -56.43555 36176 ft 509 kts 118°
2026-05-08 22:32 -19.63773 -56.40226 35601 ft 508 kts 118°
2026-05-08 22:32 -19.65395 -56.36895 34961 ft 508 kts 118°
2026-05-08 22:32 -19.67019 -56.33556 34303 ft 510 kts 118°
2026-05-08 22:33 -19.68649 -56.30204 33572 ft 513 kts 118°
2026-05-08 22:33 -19.70284 -56.26838 32829 ft 514 kts 118°
2026-05-08 22:33 -19.71921 -56.23468 32106 ft 514 kts 118°
2026-05-08 22:33 -19.73560 -56.20091 31371 ft 515 kts 119°
2026-05-08 22:34 -19.75202 -56.16706 30595 ft 516 kts 119°
2026-05-08 22:34 -19.76842 -56.13320 30027 ft 513 kts 119°
2026-05-08 22:34 -19.78470 -56.09960 29371 ft 510 kts 119°
2026-05-08 22:34 -19.80079 -56.06636 28772 ft 504 kts 119°
2026-05-08 22:35 -19.81675 -56.03337 28195 ft 499 kts 119°
2026-05-08 22:35 -19.83252 -56.00077 27635 ft 494 kts 118°
2026-05-08 22:35 -19.84812 -55.96850 27090 ft 488 kts 118°
2026-05-08 22:35 -19.86356 -55.93655 26551 ft 484 kts 118°
2026-05-08 22:36 -19.87883 -55.90492 26017 ft 479 kts 118°
2026-05-08 22:36 -19.89396 -55.87358 25493 ft 475 kts 118°
2026-05-08 22:36 -19.90899 -55.84242 24944 ft 472 kts 118°
2026-05-08 22:36 -19.92388 -55.81153 24407 ft 469 kts 118°
2026-05-08 22:37 -19.93870 -55.78077 23864 ft 466 kts 117°
2026-05-08 22:37 -19.95322 -55.75062 23311 ft 463 kts 117°
2026-05-08 22:37 -19.96783 -55.72024 22712 ft 460 kts 117°
2026-05-08 22:37 -19.98254 -55.68966 22178 ft 456 kts 117°
2026-05-08 22:38 -19.99669 -55.66022 21644 ft 452 kts 117°
2026-05-08 22:38 -20.01113 -55.63074 21124 ft 448 kts 121°
2026-05-08 22:38 -20.02846 -55.60350 20595 ft 442 kts 131°
2026-05-08 22:38 -20.04872 -55.57909 20104 ft 438 kts 134°
2026-05-08 22:39 -20.06946 -55.55495 19577 ft 435 kts 134°
2026-05-08 22:39 -20.08956 -55.53155 19068 ft 432 kts 134°
2026-05-08 22:39 -20.10969 -55.50791 18555 ft 430 kts 134°
2026-05-08 22:39 -20.12961 -55.48429 18024 ft 428 kts 134°
2026-05-08 22:40 -20.14937 -55.46071 17478 ft 425 kts 133°
2026-05-08 22:40 -20.16890 -55.43732 16963 ft 421 kts 133°
2026-05-08 22:40 -20.18827 -55.41411 16462 ft 418 kts 133°
2026-05-08 22:40 -20.20747 -55.39109 15977 ft 414 kts 133°
2026-05-08 22:41 -20.22655 -55.36822 15489 ft 411 kts 133°
2026-05-08 22:41 -20.24506 -55.34516 15024 ft 408 kts 127°
2026-05-08 22:41 -20.26011 -55.31981 14562 ft 405 kts 117°
2026-05-08 22:41 -20.27243 -55.29296 14093 ft 403 kts 115°
2026-05-08 22:42 -20.28439 -55.26608 13632 ft 400 kts 115°
2026-05-08 22:42 -20.29626 -55.23945 13133 ft 397 kts 115°
2026-05-08 22:42 -20.30812 -55.21310 12682 ft 393 kts 115°
2026-05-08 22:42 -20.31996 -55.18704 12231 ft 389 kts 115°
2026-05-08 22:43 -20.33173 -55.16130 11810 ft 385 kts 115°
2026-05-08 22:43 -20.34341 -55.13581 11386 ft 381 kts 115°
2026-05-08 22:43 -20.35496 -55.11061 10956 ft 373 kts 115°
2026-05-08 22:43 -20.36616 -55.08617 10558 ft 361 kts 115°
2026-05-08 22:44 -20.37700 -55.06253 10240 ft 348 kts 115°
2026-05-08 22:44 -20.38735 -55.03991 10083 ft 332 kts 115°
2026-05-08 22:44 -20.39784 -55.01859 9868 ft 320 kts 123°
2026-05-08 22:44 -20.41116 -54.99991 9549 ft 313 kts 130°
2026-05-08 22:45 -20.42536 -54.98236 9117 ft 313 kts 131°
2026-05-08 22:45 -20.43964 -54.96491 8668 ft 311 kts 130°
2026-05-08 22:45 -20.45369 -54.94746 8223 ft 309 kts 130°
2026-05-08 22:45 -20.46751 -54.93001 7799 ft 307 kts 129°
2026-05-08 22:46 -20.48113 -54.91258 7381 ft 306 kts 128°
2026-05-08 22:46 -20.49467 -54.89517 6958 ft 304 kts 128°
2026-05-08 22:46 -20.50360 -54.88367 6708 ft 303 kts 128°
2026-05-08 22:46 -20.51755 -54.86700 6323 ft 301 kts 140°
2026-05-08 22:47 -20.53594 -54.85699 5937 ft 295 kts 165°
2026-05-08 22:47 -20.55512 -54.84959 5605 ft 293 kts 158°
2026-05-08 22:47 -20.57303 -54.83941 5371 ft 289 kts 148°
2026-05-08 22:47 -20.58895 -54.82677 5103 ft 282 kts 135°
2026-05-08 22:48 -20.59862 -54.80971 4854 ft 261 kts 95°
2026-05-08 22:48 -20.59694 -54.79208 4641 ft 225 kts 53°
2026-05-08 22:48 -20.58673 -54.78154 4458 ft 195 kts 22°
2026-05-08 22:48 -20.57567 -54.77346 4257 ft 192 kts 30°
2026-05-08 22:49 -20.56543 -54.76456 4093 ft 189 kts 30°
2026-05-08 22:49 -20.54531 -54.74688 3529 ft 183 kts 33°
2026-05-08 22:49 -20.53613 -54.73805 3318 ft 172 kts 34°
2026-05-08 22:50 -20.52756 -54.72972 3132 ft 161 kts 34°
2026-05-08 22:50 -20.51926 -54.72170 2898 ft 158 kts 34°
2026-05-08 22:50 -20.51120 -54.71389 2698 ft 155 kts 35°
2026-05-08 22:50 -20.50327 -54.70621 2503 ft 152 kts 38°
2026-05-08 22:51 -20.49547 -54.69865 2308 ft 150 kts 38°
2026-05-08 22:51 -20.48782 -54.69134 2062 ft 146 kts 39°
2026-05-08 22:51 -20.48046 -54.68405 1892 ft 143 kts 40°
2026-05-08 22:51 -20.47336 -54.67723 1825 ft 126 kts 41°
2026-05-08 22:52 -20.46795 -54.67203 1836 ft 83 kts 41°
2026-05-08 22:52 -20.46479 -54.66897 1839 ft 43 kts 41°
2026-05-08 22:52 -20.46285 -54.66711 1841 ft 30 kts 41°
2026-05-08 22:52 -20.46177 -54.66612 1844 ft 14 kts 26°
2026-05-08 22:53 -20.46105 -54.66614 1845 ft 8 kts 340°
2026-05-08 22:53 -20.46073 -54.66627 1845 ft 5 kts 340°
2026-05-08 22:53 -20.46044 -54.66638 1845 ft 4 kts 339°
2026-05-08 22:53 -20.46015 -54.66650 1845 ft 4 kts 338°
2026-05-08 22:54 -20.45987 -54.66662 1845 ft 4 kts 339°
2026-05-08 22:54 -20.45959 -54.66673 1845 ft 4 kts 340°
2026-05-08 22:54 -20.45931 -54.66684 1845 ft 4 kts 340°
2026-05-08 22:54 -20.45895 -54.66698 1845 ft 6 kts 340°
2026-05-08 22:55 -20.45856 -54.66715 1845 ft 6 kts 329°
2026-05-08 22:55 -20.45832 -54.66751 1845 ft 6 kts 286°
2026-05-08 22:55 -20.45830 -54.66794 1845 ft 6 kts 278°
2026-05-08 22:55 -20.45806 -54.66815 1845 ft 4 kts 340°
2026-05-08 22:56 -20.45797 -54.66817 1845 ft 0 kts 351°